User: anonymous   Login
Location: Unspecified
(0.0000°N, 0.0000°E)
Time: 21:50:27
(UTC+01:00)
Language:

Cosmos 1072 Rocket - Orbit

View from above orbital plane
View from above orbital plane
View from above satellite
View from above satellite

Ground track
Ground track

The orbit data is extracted from the following two-line orbital elements,

1 11239U 79003B   17346.92229260 -.00000028 +00000-0 -44509-4 0  9996
2 11239 082.9369 315.8920 0039389 253.2765 164.6885 13.75812041952179
Epoch (UTC): 12 December 2017 22:08:06
Eccentricity: 0.0039389
inclination: 82.9369°
perigee height: 950 km
apogee height: 1008 km
right ascension of ascending node: 315.8920°
argument of perigee: 253.2765°
revolutions per day: 13.75812041
mean anomaly at epoch: 164.6885°
orbit number at epoch: 95217

The dashed part of the orbit path shows where the satellite is in the earth's shadow,  

DLR